This demonstration page uses our WeatherBlox Daily Observations layout. Learn more.

Left ArrowRight Arrow

Hourly Observations for November 17, 2018

Temp ( °F °C ) Dew Point ( °F °C ) Humidity (%) Winds ( mph kmh ) Pressure ( in mb ) Visibility ( mi km ) Precip ( " mm )
12:57 am 00:57 Mostly Cloudy 36 2.2 30 -1.1 79 79 N 24 39 30.10 1019 10 16 0.00 0.00
1:33 am 01:33 Mostly Cloudy 34 1 27 -3 75 75 N 31 50 30.21 1023 10 16 0.00 0.00
1:57 am 01:57 Mostly Cloudy 31 -0.6 26 -3.3 82 82 N 29 46 30.14 1021 10 16 0.00 0.00
2:06 am 02:06 Mostly Cloudy 30 -1 25 -4 80 80 N 31 50 30.24 1024 10 16 0.00 0.00
2:53 am 02:53 Cloudy 28 -2 25 -4 86 86 N 25 41 30.27 1025 10 16 0.00 0.00
2:57 am 02:57 Cloudy 29 -1.7 25 -3.9 85 85 N 25 41 30.17 1022 10 16 0.00 0.00
3:57 am 03:57 Cloudy 28 -2.2 25 -3.9 88 88 N 25 41 30.23 1024 10 16 0.00 0.00
4:35 am 04:35 Cloudy 27 -3 25 -4 93 93 NNE 28 44 30.33 1027 10 16 0.00 0.00
4:57 am 04:57 Cloudy 27 -2.8 24 -4.4 89 89 N 30 48 30.24 1024 10 16 0.00 0.00
5:57 am 05:57 Cloudy 26 -3.3 24 -4.4 92 92 NNE 30 48 30.28 1025 10 16 0.00 0.00
6:57 am 06:57 Cloudy 25 -3.9 22 -5.6 88 88 NNE 25 41 30.31 1026 10 16 0.00 0.00
7:29 am 07:29 Cloudy 25 -4 21 -6 86 86 NNE 28 44 30.42 1030 9 14 0.00 0.00
7:57 am 07:57 Cloudy 24 -4.4 22 -5.6 91 91 NNE 28 44 30.33 1027 9 14 0.00 0.00
8:08 am 08:08 Cloudy 25 -4 21 -6 86 86 N 30 48 30.42 1030 10 16 0.00 0.00
8:57 am 08:57 Cloudy 23 -5 20 -6.7 88 88 N 30 48 30.38 1029 10 16 0.00 0.00
9:09 am 09:09 Cloudy 23 -5 19 -7 86 86 N 25 41 30.48 1032 10 16 0.00 0.00
9:57 am 09:57 Cloudy 23 -5 17 -8.3 78 78 NNE 29 46 30.41 1030 10 16 0.00 0.00
10:34 am 10:34 Cloudy 23 -5 16 -9 74 74 NNE 24 39 30.50 1033 10 16 0.00 0.00
10:57 am 10:57 Cloudy 23 -5 16 -8.9 74 74 N 25 41 30.45 1031 10 16 0.00 0.00
11:06 am 11:06 Cloudy 23 -5 16 -9 74 74 N 25 41 30.50 1033 10 16 0.00 0.00
11:57 am 11:57 Cloudy 24 -4.4 15 -9.4 68 68 N 26 43 30.42 1030 10 16 0.00 0.00
12:57 pm 12:57 Windy with Snow Likely 24 -4.4 16 -8.9 71 71 N 23 37 30.44 1031 6 10 0.00 0.03
1:22 pm 13:22 Windy with Snow Likely 23 -5 18 -8 80 80 N 21 33 30.48 1032 3 4 0.00 0.03
1:46 pm 13:46 Windy with Snow Likely 21 -6 18 -8 86 86 N 21 33 30.50 1033 2 2 0.00 0.03
1:57 pm 13:57 Windy with Snow Likely 22 -5.6 18 -7.8 85 85 N 20 31 30.45 1031 1 2 0.00 0.03
2:26 pm 14:26 Windy with Snow Likely 21 -6 18 -8 86 86 N 20 31 30.53 1034 1 2 0.00 0.03
2:57 pm 14:57 Cloudy with Light Snow 22 -5.6 18 -7.8 85 85 N 18 30 30.45 1031 1 2 0.00 0.03
3:30 pm 15:30 Windy with Snow Likely 21 -6 18 -8 86 86 N 22 35 30.53 1034 1 2 0.00 0.03
3:57 pm 15:57 Windy with Snow Likely 21 -6.1 18 -7.8 88 88 N 20 31 30.45 1031 2 2 0.00 0.03
4:28 pm 16:28 Cloudy with Light Snow 21 -6 18 -8 86 86 N 18 30 30.53 1034 3 5 0.00 0.03
4:36 pm 16:36 Windy with Snow Likely 19 -7 18 -8 93 93 N 21 33 30.53 1034 2 3 0.00 0.03
4:57 pm 16:57 Cloudy with Light Snow 20 -6.7 17 -8.3 89 89 NNE 17 28 30.46 1032 2 3 0.00 0.03
5:06 pm 17:06 Cloudy with Light Snow 19 -7 18 -8 93 93 N 16 26 30.53 1034 2 3 0.00 0.03
5:11 pm 17:11 Cloudy with Light Snow 19 -7 18 -8 93 93 N 18 30 30.53 1034 2 3 0.00 0.00
5:42 pm 17:42 Windy with Snow Likely 19 -7 16 -9 86 86 N 22 35 30.53 1034 3 5 0.00 0.03
5:54 pm 17:54 Cloudy with Light Snow 19 -7 16 -9 86 86 NNE 17 28 30.53 1034 4 6 0.00 0.03
5:57 pm 17:57 Cloudy with Light Snow 19 -7.2 15 -9.4 84 84 NNE 17 28 30.48 1032 3 5 0.00 0.03
6:44 pm 18:44 Cloudy with Light Snow 18 -8 16 -9 93 93 N 18 30 30.56 1035 4 6 0.00 0.03
6:57 pm 18:57 Cloudy with Light Snow 18 -7.8 15 -9.4 88 88 NNE 15 24 30.50 1033 5 8 0.00 0.03
7:57 pm 19:57 Cloudy with Light Snow 19 -7.2 15 -9.4 84 84 N 13 20 30.51 1033 9 14 0.00 0.03
8:19 pm 20:19 Cloudy with Light Snow 19 -7 14 -10 79 79 N 14 22 30.56 1035 5 8 0.00 0.03
8:49 pm 20:49 Cloudy with Light Snow 19 -7 16 -9 86 86 N 15 24 30.56 1035 5 8 0.00 0.00
8:57 pm 20:57 Cloudy with Light Snow 19 -7.2 15 -9.4 84 84 N 13 20 30.52 1034 6 10 0.00 0.03
9:57 pm 21:57 Cloudy 19 -7.2 13 -10.6 77 77 N 13 20 30.52 1033 10 16 0.00 0.03
10:57 pm 22:57 Cloudy 19 -7.2 13 -10.6 77 77 N 10 17 30.51 1033 10 16 0.00 0.00
11:57 pm 23:57 Mostly Clear 17 -8.3 11 -11.7 77 77 N 8 13 30.51 1033 10 16 0.00 0.00

Powered by AerisWeather